Location: ??????????
(54.4061°N, 22.6114°E)
Time: 02:09:12
(UTC+00:00)

STARLINK-62 - Pass Details

Date: 23 October 2019
Orbit: 548 x 551 km, 53.0° (Epoch: 11 November)

Event Time Altitude Azimuth Distance (km) Brightness Sun altitude
Rises 17:08:40 0° 277° (W) 2,720 9.0 -17.3°
Reaches altitude 10° 17:10:55 10° 274° (W) 1,826 7.6 -17.6°
Maximum altitude 17:15:01 62° 195° (SSW) 623 3.8 -18.2°
Enters shadow 17:16:22 39° 131° (SE) 841 4.1 -18.4°
